Weather History for Canton, GA

Change the Weather History Date:

Wednesday, December 19, 2012

  Actual Average (KGVL) Record (KGVL)
Temperature  
Mean Temperature 48 °F 43 °F  
Max Temperature 64 °F 51 °F 75 °F (1931)
Min Temperature 32 °F 34 °F 11 °F (1963)
Degree Days  
Heating Degree Days 17 22  
Month to date heating degree days 384  
Since 1 July heating degree days 919  
Moisture  
Dew Point 33 °F    
Average Humidity 62    
Maximum Humidity 87    
Minimum Humidity 30    
Precipitation  
Precipitation 0.00 in 0.14 in 1.89 in (1936)
Month to date precipitation 3.20  
Snow  
Snow 0.00 in - - ()
Month to date snowfall  
Since 1 July snowfall  
Snow Depth -    
Sea Level Pressure  
Sea Level Pressure 30.06 in    
Wind  
Wind Speed 1 mph (East)    
Max Wind Speed 6 mph    
Max Gust Speed -    
Visibility 10 miles    
Events      
T = Trace of Precipitation, MM = Missing Value Source: NWS Daily Summary

Daily Weather History Graph

Daily Weather History Graph

Search for Another Location

Airport:

Trip Planner

Search our weather history database for the weather conditions in past years. The results will help you decide how hot, cold, wet, or windy it might be!

Date:

Astronomy

Dec. 19, 2012 Rise Set
Actual Time 7:39 AM EST 5:31 PM EST
Civil Twilight 7:11 AM EST 5:58 PM EST
Nautical Twilight 6:39 AM EST 6:30 PM EST
Astronomical Twilight 6:09 AM EST 7:00 PM EST
Moon 12:04 PM EST (12/19) No Moon Set
Length of Visible Light 10h 47m
Length of Day
9h 51m
Waxing Crescent, 45% of the Moon is Illuminated
Dec 19
Waxing Crescent
Dec 20
First Quarter
Dec 28
Full
Jan 4
Last Quarter
Jan 11
New

Hourly Weather History & Observations

Time (EST) Temp. Windchill Dew Point Humidity Pressure Visibility Wind Dir Wind Speed Gust Speed Precip Events Conditions
12:15 AM 35.6 °F - 32.0 °F 87% 30.01 in 10.0 mi Calm Calm - N/A   Clear
12:35 AM 35.6 °F - 32.0 °F 87% 30.01 in 10.0 mi Calm Calm - N/A   Clear
12:55 AM 33.8 °F - 30.2 °F 87% 30.02 in 7.0 mi Calm Calm - N/A   Clear
1:15 AM 33.8 °F 30.8 °F 30.2 °F 87% 30.01 in 10.0 mi NNE 3.5 mph - N/A   Clear
1:35 AM 32.0 °F 28.7 °F 28.4 °F 87% 30.01 in 7.0 mi North 3.5 mph - N/A   Clear
1:55 AM 32.0 °F - 28.4 °F 87% 30.02 in 7.0 mi Calm Calm - N/A   Clear
2:15 AM 33.8 °F 30.8 °F 30.2 °F 87% 30.02 in 10.0 mi North 3.5 mph - N/A   Clear
2:35 AM 33.8 °F 30.8 °F 30.2 °F 87% 30.02 in 10.0 mi North 3.5 mph - N/A   Clear
2:55 AM 32.0 °F 27.5 °F 28.4 °F 87% 30.02 in 7.0 mi North 4.6 mph - N/A   Clear
3:15 AM 35.6 °F - 32.0 °F 87% 30.02 in 10.0 mi Calm Calm - N/A   Clear
3:35 AM 33.8 °F - 28.4 °F 81% 30.03 in 10.0 mi Calm Calm - N/A   Clear
3:55 AM 33.8 °F - 28.4 °F 81% 30.03 in 10.0 mi Calm Calm - N/A   Clear
4:15 AM 35.6 °F - 28.4 °F 75% 30.03 in 10.0 mi Calm Calm - N/A   Clear
4:35 AM 33.8 °F - 28.4 °F 81% 30.04 in 10.0 mi Calm Calm - N/A   Clear
4:55 AM 32.0 °F 28.7 °F 28.4 °F 87% 30.04 in 10.0 mi NNW 3.5 mph - N/A   Clear
5:15 AM 33.8 °F - 30.2 °F 87% 30.04 in 10.0 mi Calm Calm - N/A   Clear
5:35 AM 33.8 °F - 28.4 °F 81% 30.04 in 10.0 mi Calm Calm - N/A   Clear
5:55 AM 35.6 °F - 28.4 °F 75% 30.04 in 10.0 mi Calm Calm - N/A   Clear
6:15 AM 32.0 °F - 28.4 °F 87% 30.04 in 10.0 mi Calm Calm - N/A   Clear
6:35 AM 33.8 °F - 28.4 °F 81% 30.05 in 10.0 mi Calm Calm - N/A   Clear
6:55 AM 32.0 °F - 28.4 °F 87% 30.05 in 10.0 mi Calm Calm - N/A   Clear
7:15 AM 33.8 °F - 30.2 °F 87% 30.06 in 10.0 mi Calm Calm - N/A   Clear
7:35 AM 33.8 °F - 30.2 °F 87% 30.06 in 10.0 mi Calm Calm - N/A   Clear
7:55 AM 33.8 °F - 28.4 °F 81% 30.07 in 10.0 mi Calm Calm - N/A   Clear
8:15 AM 35.6 °F - 32.0 °F 87% 30.08 in 10.0 mi Calm Calm - N/A   Clear
8:35 AM 37.4 °F - 32.0 °F 81% 30.08 in 10.0 mi Calm Calm - N/A   Clear
8:55 AM 37.4 °F - 30.2 °F 75% 30.09 in 10.0 mi Calm Calm - N/A   Clear
9:15 AM 37.4 °F - 32.0 °F 81% 30.09 in 10.0 mi Calm Calm - N/A   Clear
9:35 AM 42.8 °F - 32.0 °F 66% 30.09 in 10.0 mi Calm Calm - N/A   Clear
9:55 AM 44.6 °F - 32.0 °F 61% 30.11 in 10.0 mi Calm Calm - N/A   Clear
10:15 AM 50.0 °F - 32.0 °F 50% 30.11 in 10.0 mi Calm Calm - N/A   Clear
10:35 AM 51.8 °F - 32.0 °F 47% 30.12 in 10.0 mi Calm Calm - N/A   Clear
10:55 AM 51.8 °F - 32.0 °F 47% 30.12 in 10.0 mi Calm Calm - N/A   Clear
11:15 AM 53.6 °F - 32.0 °F 44% 30.12 in 10.0 mi Calm Calm - N/A   Clear
11:35 AM 55.4 °F - 32.0 °F 41% 30.11 in 10.0 mi Calm Calm - N/A   Clear
11:55 AM 57.2 °F - 32.0 °F 38% 30.09 in 10.0 mi South 3.5 mph - N/A   Clear
12:15 PM 59.0 °F - 32.0 °F 36% 30.08 in 10.0 mi SSW 5.8 mph - N/A   Clear
12:35 PM 60.8 °F - 32.0 °F 34% 30.07 in 10.0 mi SSW 4.6 mph - N/A   Clear
12:55 PM 60.8 °F - 32.0 °F 34% 30.06 in 10.0 mi SSE 3.5 mph - N/A   Clear
1:15 PM 62.6 °F - 32.0 °F 32% 30.06 in 10.0 mi South 3.5 mph - N/A   Clear
1:35 PM 62.6 °F - 32.0 °F 32% 30.05 in 10.0 mi SE 4.6 mph - N/A   Clear
1:55 PM 62.6 °F - 32.0 °F 32% 30.04 in 10.0 mi South 5.8 mph - N/A   Clear
2:15 PM 62.6 °F - 32.0 °F 32% 30.04 in 10.0 mi Calm Calm - N/A   Clear
2:55 PM 64.4 °F - 32.0 °F 30% 30.04 in 10.0 mi SSW 5.8 mph - N/A   Clear
3:15 PM 64.4 °F - 32.0 °F 30% 30.04 in 10.0 mi SW 4.6 mph - N/A   Clear
3:35 PM 62.6 °F - 33.8 °F 34% 30.05 in 10.0 mi SSW 5.8 mph - N/A   Clear
3:55 PM 62.6 °F - 33.8 °F 34% 30.05 in 10.0 mi SSW 3.5 mph - N/A   Clear
4:15 PM 64.4 °F - 35.6 °F 34% 30.04 in 10.0 mi Calm Calm - N/A   Clear
4:35 PM 62.6 °F - 35.6 °F 37% 30.04 in 10.0 mi Calm Calm - N/A   Clear
4:55 PM 62.6 °F - 35.6 °F 37% 30.04 in 10.0 mi Calm Calm - N/A   Clear
5:15 PM 60.8 °F - 35.6 °F 39% 30.05 in 10.0 mi Calm Calm - N/A   Clear
5:35 PM 60.8 °F - 35.6 °F 39% 30.05 in 10.0 mi Calm Calm - N/A   Clear
5:55 PM 60.8 °F - 37.4 °F 42% 30.05 in 10.0 mi Calm Calm - N/A   Clear
6:15 PM 59.0 °F - 37.4 °F 45% 30.06 in 10.0 mi Calm Calm - N/A   Clear
6:35 PM 59.0 °F - 37.4 °F 45% 30.06 in 10.0 mi Calm Calm - N/A   Clear
6:55 PM 55.4 °F - 39.2 °F 54% 30.07 in 10.0 mi Calm Calm - N/A   Clear
7:15 PM 53.6 °F - 41.0 °F 62% 30.07 in 10.0 mi NE 3.5 mph - N/A   Clear
7:35 PM 55.4 °F - 39.2 °F 54% 30.07 in 10.0 mi ENE 3.5 mph - N/A   Clear
7:55 PM 55.4 °F - 41.0 °F 58% 30.07 in 10.0 mi Calm Calm - N/A   Clear
8:15 PM 53.6 °F - 41.0 °F 62% 30.07 in 10.0 mi ENE 3.5 mph - N/A   Clear
8:35 PM 51.8 °F - 41.0 °F 67% 30.07 in 10.0 mi ENE 3.5 mph - N/A   Clear
8:55 PM 51.8 °F - 41.0 °F 67% 30.08 in 10.0 mi Calm Calm - N/A   Clear
9:15 PM 51.8 °F - 39.2 °F 62% 30.07 in 10.0 mi Calm Calm - N/A   Clear
9:35 PM 51.8 °F - 39.2 °F 62% 30.07 in 10.0 mi ENE 3.5 mph - N/A   Clear
9:55 PM 51.8 °F - 39.2 °F 62% 30.07 in 10.0 mi ENE 3.5 mph - N/A   Clear
10:15 PM 50.0 °F - 39.2 °F 66% 30.07 in 10.0 mi East 3.5 mph - N/A   Clear
10:35 PM 50.0 °F - 39.2 °F 66% 30.07 in 10.0 mi Calm Calm - N/A   Clear
10:55 PM 51.8 °F - 37.4 °F 58% 30.07 in 10.0 mi Calm Calm - N/A   Clear
11:15 PM 51.8 °F - 37.4 °F 58% 30.06 in 10.0 mi ENE 3.5 mph - N/A   Clear
11:35 PM 50.0 °F - 37.4 °F 62% 30.07 in 10.0 mi East 3.5 mph - N/A   Clear
11:55 PM 50.0 °F - 37.4 °F 62% 30.06 in 10.0 mi East 3.5 mph - N/A   Clear